Flag for Germany Weather past 2 weeks in Hamburg, Hamburg, Germany

Now
48 °F

Clear.


Feels Like: 44 °F
Forecast: 43 / 65 °F
Wind: 10 mph from Northeast

Location: Hamburg-Fuhlsbuettel


UV Index: 3 (Moderate)

Visibility: 10 mi


Pressure: 30.04 "Hg

Humidity: 82%

Dew point: 43 °F

Location of HamburgLocation

Historic Weather in Hamburg

°F

Hamburg temperature yesterday

Maximum temperature yesterday: 61 °F (at 3:20 PM)
Minimum temperature yesterday: 37 °F (at 3:50 AM)
Average temperature yesterday: 50 °F

Past Weeks' High & Low Weather Summary

 TemperatureHumidityPressure
High66 °F (Apr 7, 4:50 PM)100% (Apr 5, 7:50 AM)30.45 "Hg (Apr 5, 7:50 AM)
Low30 °F (Apr 16, 3:50 AM)29% (Apr 16, 5:20 PM)29.65 "Hg (Apr 8, 5:20 AM)
Average49 °F79%30.01 "Hg
* Reported Apr 5 12:20 AM — Apr 20 12:20 AM, Hamburg, Weather by CustomWeather, © 2014

Note: Actual official high and low records may vary slightly from our data, if they occured in-between our weather recording intervals... More about our weather records

Advertising

Historic Weather Conditions — Data for Previous 24 hours

 ConditionsComfort  
Time TempWeatherWind HumidityBarometerVisibility
12:20 AM
Apr 20
50 °FClear.10 mph76%30.07 "Hg10 mi
11:50 PM
Apr 19
50 °FClear.9 mph76%30.07 "Hg10 mi
11:20 PM50 °FClear.12 mph76%30.07 "Hg10 mi
10:50 PM52 °FPassing clouds.9 mph72%30.07 "HgN/A
10:20 PM52 °FClear.15 mph72%30.07 "Hg10 mi
9:50 PM52 °FClear.16 mph72%30.07 "Hg10 mi
9:20 PM54 °FSunny.16 mph67%30.07 "Hg10 mi
8:50 PM54 °FPassing clouds.15 mph63%30.09 "HgN/A
8:20 PM54 °FSunny.15 mph63%30.09 "Hg10 mi
7:50 PM55 °FPassing clouds.14 mph55%30.07 "HgN/A
7:20 PM57 °FSunny.13 mph48%30.07 "Hg10 mi
6:50 PM59 °FSunny.14 mph45%30.07 "Hg10 mi
6:20 PM59 °FSunny.20 mph48%30.09 "Hg10 mi
5:50 PM59 °FPassing clouds.15 mph55%30.09 "HgN/A
5:20 PM61 °FPassing clouds.16 mph55%30.09 "HgN/A
4:50 PM61 °FSunny.16 mph52%30.09 "Hg10 mi
4:20 PM61 °FPassing clouds.15 mph55%30.09 "HgN/A
3:50 PM61 °FPassing clouds.14 mph52%30.12 "HgN/A
3:20 PM61 °FPassing clouds.12 mph55%30.12 "HgN/A
2:50 PM59 °FPassing clouds.14 mph59%30.12 "HgN/A
2:20 PM59 °FSunny.13 mph59%30.15 "Hg10 mi
1:50 PM59 °FScattered clouds.12 mph63%30.15 "HgN/A
1:20 PM57 °FPassing clouds.10 mph63%30.15 "HgN/A
12:50 PM57 °FPassing clouds.12 mph63%30.15 "HgN/A
12:20 PM57 °FPassing clouds.10 mph67%30.15 "HgN/A
11:50 AM55 °FPassing clouds.9 mph72%30.18 "HgN/A
11:20 AM54 °FPassing clouds.12 mph72%30.18 "HgN/A
10:50 AM54 °FPassing clouds.10 mph67%30.15 "HgN/A
10:20 AM52 °FPassing clouds.6 mph72%30.15 "HgN/A
9:50 AM50 °FSunny.6 mph76%30.15 "Hg10 mi
9:20 AM46 °FPassing clouds.6 mph82%30.15 "HgN/A
8:50 AM45 °FSunny.8 mph93%30.15 "Hg10 mi
8:20 AM43 °FPassing clouds.9 mph93%30.15 "HgN/A
7:50 AM41 °FPassing clouds.8 mph100%30.15 "HgN/A
7:20 AM41 °FPassing clouds.6 mph93%30.15 "HgN/A
6:50 AM39 °FPassing clouds.7 mph93%30.12 "HgN/A
6:20 AM39 °FPassing clouds.8 mph93%30.12 "HgN/A
5:50 AM37 °FClear.8 mph100%30.09 "Hg10 mi
5:20 AM37 °FClear.9 mph100%30.09 "Hg10 mi
4:50 AM37 °FClear.7 mph100%30.09 "Hg10 mi
4:20 AM37 °FPassing clouds.3 mph100%30.09 "HgN/A
3:50 AM37 °FPassing clouds.3 mph93%30.07 "HgN/A
3:20 AM39 °FClear.6 mph93%30.07 "Hg10 mi
2:50 AM39 °FClear.7 mph93%30.07 "Hg10 mi
2:20 AM39 °FClear.6 mph93%30.04 "Hg10 mi
1:50 AM39 °FPassing clouds.5 mph93%30.04 "HgN/A
1:20 AM39 °FPassing clouds.3 mph93%30.04 "HgN/A
Weather by CustomWeather, © 2014

See weather overview